Tracking 19242 objects as of 19-Sep-2018
HD Live streaming from Space Station
objects crossing your sky now

FENGYUN 1C DEB

Track FENGYUN 1C DEB now!
10-day predictions


NORAD ID: 35148
Int'l Code: 1999-025DMC
Perigee: 652.0 km
Apogee: 779.3 km
Inclination: 98.9 °
Period: 99.0 minutes
Semi major axis: 7086 km
RCS: 0.0118 m2 (small)
Launch date: May 10, 1999
Source: People's Republic of China (PRC)
Launch site: Taiyaun Space Center, China (TSC)

Note: This is SATELLITE DEBRIS
aabbcc
Your satellite tracking list
Your tracking list is empty




NASA's NSSDC Master Catalog

Two Line Element Set (TLE):
1 35148U 99025DMC 18261.57017307  .00000693  00000-0  16415-3 0  9992
2 35148  98.9094 170.9733 0089830 248.5551 110.6045 14.55261496579540
Source of the keplerian elements: AFSPC